CW8427 Weather Reports


time (UTC)temp
F
wind
direction
speed
knots
gust
knots
rain 1hr
in
rain 24hr
in
rain mn
in
humidity
%
barometer
mb
20260505022627 69 205 2.6 5.2 0.00 0.01 0.01 32 1005.0
20260505021628 69 193 3.5 6.1 0.00 0.01 0.01 31 1004.9
20260505020650 70 237 3.5 7.0 0.00 0.01 0.01 31 1004.8
20260505015636 70 208 3.5 7.0 0.00 0.01 0.01 30 1004.7
20260505014617 71 213 6.1 8.7 0.00 0.01 0.01 29 1004.7
20260505013625 71 157 5.2 7.8 0.00 0.01 0.01 29 1004.7
20260505012626 71 197 4.3 10.4 0.00 0.01 0.01 29 1004.7
20260505011626 71 173 7.0 12.2 0.00 0.01 0.01 30 1004.9
20260505010630 72 184 5.2 9.6 0.00 0.01 0.01 29 1004.9
20260505005633 72 205 7.8 12.2 0.00 0.01 0.01 28 1005.0
20260505004636 73 173 7.0 13.0 0.00 0.01 0.01 27 1004.9
20260505003636 73 211 5.2 8.7 0.00 0.01 0.01 27 1005.0
20260505002619 73 260 6.1 9.6 0.00 0.01 0.01 27 1005.0
20260505001620 73 224 7.0 13.0 0.00 0.01 0.01 28 1005.2
20260505000620 73 255 7.8 11.3 0.00 0.01 0.01 27 1005.2
20260504235623 73 231 7.0 10.4 0.00 0.01 0.01 27 1005.3
20260504234646 73 257 7.8 12.2 0.00 0.01 0.01 28 1005.3
20260504233626 73 244 11.3 16.5 0.00 0.01 0.01 28 1005.3
20260504232629 74 255 9.6 17.4 0.00 0.01 0.01 28 1005.2
20260504231635 74 244 8.7 18.2 0.00 0.01 0.01 29 1005.3
20260504230656 75 173 9.6 15.6 0.00 0.01 0.01 28 1005.2
20260504225640 75 242 5.2 9.6 0.00 0.01 0.01 24 1005.2
20260504224623 75 261 7.8 11.3 0.00 0.01 0.01 23 1005.2
20260504223627 76 336 2.6 11.3 0.00 0.01 0.01 22 1005.3
20260504222648 76 271 1.7 9.6 0.00 0.01 0.01 23 1005.2
20260504221634 75 278 6.1 9.6 0.00 0.01 0.01 21 1005.4
20260504220618 75 344 5.2 11.3 0.00 0.01 0.01 23 1005.4
20260504215621 75 283 3.5 9.6 0.00 0.01 0.01 21 1005.6
20260504214627 75 311 3.5 8.7 0.00 0.01 0.01 24 1005.7
20260504193632 73 284 0.9 9.6 0.00 0.01 0.01 30 1007.3
20260504192628 73 305 7.0 12.2 0.00 0.01 0.01 32 1007.4
20260504191646 73 271 4.3 7.8 0.00 0.01 0.01 32 1007.5
20260504190627 72 355 3.5 8.7 0.00 0.01 0.01 31 1007.6
20260504185625 72 286 1.7 9.6 0.00 0.01 0.01 33 1007.7
20260504184627 72 324 5.2 7.8 0.00 0.01 0.01 33 1007.8
20260504183624 73 264 7.8 11.3 0.00 0.01 0.01 32 1007.9
20260504182627 72 200 3.5 11.3 0.00 0.01 0.01 29 1008.1
20260504181630 72 281 4.3 7.8 0.01 0.01 0.01 34 1008.2
20260504180616 72 105 2.6 7.8 0.01 0.01 0.01 34 1008.4
20260504175618 71 173 3.5 6.1 0.01 0.01 0.01 34 1008.5